Home > Weather > El Paso > Past weeks

Flag for USA Weather for the Past 2 Weeks in El Paso, Texas, USA

Now
58 °F

Sunny.


Feels Like: 55 °F
Forecast: 56 / 76 °F
Wind: 16 mph from West

Location: El Paso International Airport

Current Time: Apr 29, 2016 at 8:31:31 AM

Latest Report: Apr 29, 2016 at 7:51 AM


Visibility: 10 mi

Pressure: 29.72 "Hg (25.95 "Hg at 1142m altitude)

Humidity: 22%

Dew Point: 19 °F

Location of El PasoLocation

Historic Weather in El Paso — Graph

°F

El Paso Temperature Yesterday

Maximum temperature yesterday: 83 °F (at 3:51 PM)
Minimum temperature yesterday: 56 °F (at 5:51 AM)
Average temperature yesterday: 72 °F

High & Low Weather Summary for the Past Weeks

 TemperatureHumidityPressure
High86 °F (Apr 14, 3:51 PM)78% (Apr 23, 6:51 AM)30.02 "Hg (Apr 23, 6:51 AM)
Low44 °F (Apr 17, 5:51 AM)5% (Apr 20, 5:51 PM)29.39 "Hg (Apr 15, 4:51 PM)
Average70 °F22%29.73 "Hg
* Reported Apr 14 6:51 AM — Apr 29 6:51 AM, El Paso, Weather by CustomWeather, © 2016

Note: Actual official high and low records may vary slightly from our data, if they occured in-between our weather recording intervals... More about our weather records

Advertising

El Paso Weather History for the Previous 24 Hours

Scroll right to see more
 ConditionsComfort  
Time TempWeatherWind HumidityBarometerVisibility
6:51 AM
Fri, Apr 29
58 °FClear.20 mph24%29.68 "Hg10 mi
5:51 AM59 °FPassing clouds.14 mph22%29.67 "Hg10 mi
4:51 AM60 °FClear.20 mph23%29.63 "Hg10 mi
3:51 AM61 °FClear.25 mph25%29.60 "Hg10 mi
2:51 AM63 °FClear.23 mph27%29.59 "Hg10 mi
1:51 AM65 °FClear.23 mph25%29.57 "Hg10 mi
12:51 AM69 °FClear.25 mph23%29.55 "Hg10 mi
11:51 PM
Thu, Apr 28
69 °FClear.25 mph23%29.54 "Hg10 mi
10:51 PM70 °FClear.16 mph19%29.54 "Hg10 mi
9:51 PM72 °FClear.24 mph16%29.52 "Hg10 mi
8:51 PM74 °FClear.20 mph14%29.52 "Hg10 mi
7:51 PM76 °FPassing clouds.22 mph12%29.50 "Hg10 mi
6:51 PM79 °FLow level haze.15 mph11%29.49 "Hg6 mi
5:51 PM81 °FPassing clouds.5 mph9%29.50 "Hg8 mi
4:51 PM83 °FPassing clouds.12 mph7%29.49 "Hg10 mi
3:51 PM83 °FPassing clouds.12 mph7%29.50 "Hg10 mi
2:51 PM81 °FPassing clouds.12 mph7%29.54 "Hg10 mi
1:51 PM82 °FPassing clouds.24 mph7%29.55 "Hg10 mi
12:51 PM80 °FPassing clouds.15 mph7%29.57 "Hg10 mi
11:51 AM78 °FPassing clouds.24 mph8%29.59 "Hg10 mi
10:51 AM75 °FPassing clouds.14 mph11%29.61 "Hg10 mi
9:51 AM72 °FPassing clouds.12 mph13%29.63 "Hg10 mi
8:51 AM67 °FPassing clouds.9 mph17%29.65 "Hg10 mi
Weather by CustomWeather, © 2016

See weather overviewHow to use our weather pages